Regional Weather Roundup
Issued by NWS

Home | Current Version | Previous Version | Text Only | Print | Product List | Glossary Off
Versions: 1 2 3 4 5 6 7 8 9 10 11 12 13 14 15 16 17 18 19 20 21 22 23 24 25 26 27 28 29 30 31 32 33 34 35 36 37 38 39 40 41 42 43 44 45 46 47 48 49 50

000
ASUS43 KBIS 060302
RWRND

NORTH DAKOTA REGIONAL WEATHER ROUNDUP
NATIONAL WEATHER SERVICE BISMARCK ND
1000 PM CDT SUN JUL 05 2015

NOTE: "FAIR" INDICATES FEW OR NO CLOUDS BELOW 12,000 FEET WITH NO
SIGNIFICANT WEATHER AND/OR OBSTRUCTIONS TO VISIBILITY.


NDZ001>003-009>011-017-060400-
NORTHWEST NORTH DAKOTA

CITY           SKY/WX    TMP DP  RH WIND       PRES   REMARKS
WILLISTON      CLOUDY    68  50  52 N8        30.05R
MINOT          CLOUDY    63  54  72 NW9       29.98R HAZE
$$

NDZ018>021-031>035-040>046-060400-
SOUTHWEST NORTH DAKOTA

CITY           SKY/WX    TMP DP  RH WIND       PRES   REMARKS
BISMARCK       CLOUDY    70  61  73 N9        29.95F HAZE
DICKINSON      CLOUDY    64  52  64 N7        30.02F
GARRISON         N/A     62  56  80 N8        29.99R
HETTINGER ARPT CLOUDY    62  58  86 NW7       30.04F FOG
$$

NDZ004>008-012>016-024-026-027-054-060400-
NORTHEAST NORTH DAKOTA

CITY           SKY/WX    TMP DP  RH WIND       PRES   REMARKS
GRAND FORKS    CLOUDY    65  60  84 NW7       29.84F HAZE
GRND FRKS AFB  CLOUDY    65  60  84 N7        29.87R
DEVILS LAKE    CLOUDY    64  55  72 NW8       29.91S
$$

NDZ022-023-025-028>030-036>039-047>053-060400-
SOUTHEAST NORTH DAKOTA

CITY           SKY/WX    TMP DP  RH WIND       PRES   REMARKS
FARGO          PTCLDY    71  66  84 N13       29.84R
JAMESTOWN      CLOUDY    70  65  84 N10       29.88F HAZE
$$



USA.gov is the U.S. government's official web portal to all federal, state and local government web resources and services.